Regional Weather Roundup
Issued by NWS

Home | Current Version | Previous Version | Graphics & Text | Print | Product List | Glossary On
Versions: 1 2 3 4 5 6 7 8 9 10 11 12 13 14 15 16 17 18 19 20 21 22 23 24 25 26 27 28 29 30 31 32 33 34 35 36 37 38 39 40 41 42 43 44 45 46 47 48 49 50
825
ASUS45 KCYS 072010
RWRWY

WYOMING REGIONAL WEATHER ROUNDUP
NATIONAL WEATHER SERVICE CHEYENNE WY
100 PM MST WED DEC 07 2016

NOTE:  "FAIR" INDICATES FEW OR NO CLOUDS BELOW 12,000 FEET
WITH NO SIGNIFICANT WEATHER AND/OR OBSTRUCTIONS TO VISIBILITY.

WYZ001-072100-
YELLOWSTONE NATIONAL PARK

CITY           SKY/WX    TMP DP  RH WIND       PRES   REMARKS
LK YELLOWSTONE   N/A      6  -2  69 VRB3      30.05F
W YELLOWSTONE  NOT AVBL

$$
WYZ002>013-054>058-071-098>099-072100-
NORTHERN WYOMING

CITY           SKY/WX    TMP DP  RH WIND       PRES   REMARKS
JACKSON        FAIR       7   1  78 CALM      30.15S
CODY           FAIR       7  -3  64 S3        30.29S
GREYBULL       PTSUNNY   13  -2  51 VRB3      30.36S
WORLAND        PTSUNNY   10   0  63 NW5       30.35S WCI   2
SHERIDAN       FAIR       6  -5  60 W7        30.37S WCI  -6
BUFFALO        PTSUNNY    4  -6  63 NW3       30.28S
GILLETTE       CLOUDY     2  -4  76 NW10      30.32S WCI -14
HULETT         CLOUDY     5  -4  66 MISG      30.31S
NEWCASTLE      CLOUDY     3  -6  66 NW16      30.32S WCI -16

$$
WYZ014>020-022>026-101>103-072100-
CENTRAL WYOMING

CITY           SKY/WX    TMP DP  RH WIND       PRES   REMARKS
BIG PINEY      FAIR      11   1  64 CALM      30.11S
PINEDALE       FAIR       9   0  66 MISG      30.11S
DUBOIS         FAIR       3  -6  66 CALM      30.05F
LANDER         FAIR      10  -1  61 VRB3      30.21S
RIVERTON       CLOUDY     9   1  70 SE3       30.22F
CASPER         FAIR       2  -4  76 SW5       30.24F WCI  -8
DOUGLAS        FAIR       6  -3  66 NW12      30.27F WCI  -9

$$
WYZ021-027>030-104>119-072100-
SOUTHERN WYOMING

CITY           SKY/WX    TMP DP  RH WIND       PRES   REMARKS
EVANSTON       FAIR      15   2  56 SW6       30.11F WCI   6
FORT BRIDGER   FAIR      16   4  59 W8        30.15F WCI   5
ROCK SPRINGS   FAIR       9   1  70 CALM      30.13S
DIXON          FAIR      15   0  53 W3        30.16S
RAWLINS        CLOUDY     8  -2  63 NW3       30.10F
SARATOGA       FAIR       9   1  72 NW5       30.10S WCI   0
LARAMIE        FAIR       3  -4  72 N8        30.04R WCI -10
CHEYENNE       FAIR       4  -4  69 N14       30.13R WCI -14
TORRINGTON     FAIR      12  -2  53 NW15G22   30.29S WCI  -4
PINE BLUFFS    CLOUDY    10   1  67 NW13G20   30.22S WCI  -5

$$




USA.gov is the U.S. government's official web portal to all federal, state and local government web resources and services.